Location: Demmingen
(48.6757°N, 10.4375°E)
Time: 00:30:13
(UTC+00:00)

CZ-2C R/B - Pass Details

Date: 11 August 2024
Orbit: 703 x 904 km, 98.2° (Epoch: 07 September)

Event Time Altitude Azimuth Distance (km) Brightness Sun altitude
Rises 00:49:19 0° 19° (NNE) 3,181 7.7 -23.4°
Reaches altitude 10° 00:51:40 10° 26° (NNE) 2,278 6.6 -23.2°
Maximum altitude 00:56:27 44° 98° (E) 1,067 3.8 -22.9°
Enters shadow 00:58:12 33° 144° (SE) 1,307 3.9 -22.8°
